Location: Eschertshofen
(49.3064°N, 11.5756°E)
Time: 22:53:40
(UTC+00:00)

Cosmos 1464 Rocket - Pass Details

Date: 18 September 2020
Orbit: 953 x 1000 km, 82.9° (Epoch: 20 October)

Event Time Altitude Azimuth Distance (km) Brightness Sun altitude
Rises 17:58:09 0° 160° (SSE) 3,617 6.7 -7.1°
Reaches altitude 10° 18:00:48 10° 153° (SSE) 2,676 5.9 -7.5°
Maximum altitude 18:06:20 38° 88° (E) 1,438 4.4 -8.4°
Drops below altitude 10° 18:11:56 10° 23° (NNE) 2,708 6.2 -9.3°
Sets 18:14:37 0° 15° (NNE) 3,665 7.0 -9.7°
